Galena, AK

4:13 AM AKDT on July 28, 2017 (GMT -0800)
Pitka

Weather History for PAGA - November, 2013

Change the Weather History Date:

Saturday, November 16, 2013

  Actual Average Record
Temperature  
Mean Temperature 14 °F -  
Max Temperature 19 °F 10 °F 35 °F (1964)
Min Temperature 6 °F -3 °F -40 °F (1956)
Degree Days  
Heating Degree Days 51    
Moisture  
Dew Point 13 °F    
Average Humidity 84    
Maximum Humidity 93    
Minimum Humidity 68    
Precipitation  
Precipitation 0.00 in - - ()
Sea Level Pressure  
Sea Level Pressure 30.37 in    
Wind  
Wind Speed 9 mph (West)    
Max Wind Speed 15 mph    
Max Gust Speed -    
Visibility 8 miles    
Events Snow    
Averages and records for this station are not official NWS values.
T = Trace of Precipitation, MM = Missing Value Source: NWS Daily Summary

Daily Weather History Graph

Daily Weather History Graph

Search for Another Location

Airport or City:

Trip Planner

Search our weather history database for the weather conditions in past years. The results will help you decide how hot, cold, wet, or windy it might be!

Date:

Astronomy

Nov. 16, 2013 Rise Set
Actual Time 10:07 AM AKST 4:17 PM AKST
Civil Twilight 9:03 AM AKST 5:20 PM AKST
Nautical Twilight 8:01 AM AKST 6:23 PM AKST
Astronomical Twilight 7:03 AM AKST 7:20 PM AKST
Moon 4:14 PM AKST (11/16) 8:55 AM AKST (11/16)
Length of Visible Light 8h 16m
Length of Day
6h 10m
Waxing Gibbous, 99% of the Moon is Illuminated
Nov 16
Waxing Gibbous
Nov 17
Full
Nov 25
Last Quarter
Dec 2
New
Dec 9
First Quarter

Hourly Weather History & Observations

Time (AKST) Temp. Windchill Dew Point Humidity Pressure Visibility Wind Dir Wind Speed Gust Speed Precip Events Conditions
12:08 AM 19.4 °F 9.5 °F 15.8 °F 86% 30.25 in 2.5 mi WSW 8.1 mph - N/A Snow Light Snow
12:23 AM 19.4 °F 7.9 °F 17.6 °F 93% 30.25 in 3.0 mi WSW 10.4 mph - N/A Snow Light Snow
12:47 AM 19.4 °F 7.2 °F 17.6 °F 93% 30.25 in 2.0 mi WSW 11.5 mph - N/A Snow Light Snow
12:51 AM 19.4 °F 7.2 °F 17.6 °F 93% 30.25 in 1.8 mi WSW 11.5 mph - N/A Snow Light Snow
12:58 AM 19.0 °F 7.5 °F 17.1 °F 92% 30.28 in 1.5 mi WSW 10.4 mph - N/A Snow Light Snow
1:14 AM 19.4 °F 7.2 °F 17.6 °F 93% 30.26 in 2.0 mi WSW 11.5 mph - N/A Snow Light Snow
1:18 AM 19.4 °F 7.2 °F 17.6 °F 93% 30.26 in 1.8 mi WSW 11.5 mph - N/A Snow Light Snow
1:30 AM 19.4 °F 6.6 °F 17.6 °F 93% 30.26 in 2.5 mi West 12.7 mph - N/A Snow Light Snow
1:36 AM 19.4 °F 6.6 °F 17.6 °F 93% 30.26 in 3.0 mi WSW 12.7 mph - N/A Snow Light Snow
1:42 AM 19.4 °F 6.0 °F 15.8 °F 86% 30.26 in 6.0 mi WSW 13.8 mph - N/A Snow Light Snow
1:58 AM 19.9 °F 6.2 °F 15.1 °F 81% 30.29 in 9.0 mi WSW 15.0 mph - N/A Snow Light Snow
2:58 AM 18.0 °F 6.9 °F 14.0 °F 84% 30.31 in 10.0 mi WSW 9.2 mph - N/A   Mostly Cloudy
3:58 AM 17.1 °F 8.7 °F 14.0 °F 88% 30.32 in 10.0 mi WSW 5.8 mph - N/A   Overcast
4:42 AM 19.4 °F 7.9 °F 15.8 °F 86% 30.30 in 10.0 mi West 10.4 mph - N/A   Overcast
4:58 AM 19.9 °F 11.1 °F 16.0 °F 85% 30.33 in 9.0 mi WSW 6.9 mph - N/A Snow Light Snow
5:58 AM 19.9 °F 12.1 °F 16.0 °F 85% 30.34 in 9.0 mi West 5.8 mph - N/A Snow Light Snow
6:42 AM 19.4 °F 8.6 °F 15.8 °F 86% 30.33 in 2.5 mi West 9.2 mph - N/A Snow Light Snow
6:53 AM 19.4 °F 8.6 °F 15.8 °F 86% 30.33 in 6.0 mi West 9.2 mph - N/A Snow Light Snow
6:57 AM 19.9 °F 10.1 °F 16.0 °F 85% 30.35 in 9.0 mi West 8.1 mph - N/A Snow Light Snow
7:02 AM 19.4 °F 11.5 °F 15.8 °F 86% 30.33 in 9.0 mi West 5.8 mph - N/A Snow Light Snow
7:58 AM 18.0 °F 9.8 °F 16.0 °F 92% 30.36 in 10.0 mi WNW 5.8 mph - N/A   Mostly Cloudy
8:58 AM 18.0 °F 9.8 °F 14.0 °F 84% 30.38 in 10.0 mi WNW 5.8 mph - N/A   Mostly Cloudy
9:58 AM 18.0 °F 11.1 °F 12.9 °F 81% 30.40 in 10.0 mi West 4.6 mph - N/A   Scattered Clouds
10:58 AM 17.1 °F 5.8 °F 10.9 °F 77% 30.41 in 10.0 mi WSW 9.2 mph - N/A   Overcast
11:58 AM 16.0 °F 8.8 °F 10.9 °F 81% 30.44 in 10.0 mi WNW 4.6 mph - N/A   Overcast
12:58 PM 18.0 °F 7.7 °F 10.9 °F 74% 30.45 in 10.0 mi West 8.1 mph - N/A   Mostly Cloudy
1:58 PM 18.0 °F 8.7 °F 10.9 °F 74% 30.46 in 10.0 mi WNW 6.9 mph - N/A   Mostly Cloudy
2:58 PM 19.9 °F 10.1 °F 10.9 °F 68% 30.46 in 10.0 mi WNW 8.1 mph - N/A   Overcast
3:58 PM 18.0 °F 7.7 °F 10.9 °F 74% 30.48 in 10.0 mi WNW 8.1 mph - N/A   Overcast
4:58 PM 18.0 °F 12.7 °F 12.0 °F 78% 30.48 in 9.0 mi WNW 3.5 mph - N/A Snow Light Snow
5:58 PM 18.0 °F 5.4 °F 12.0 °F 78% 30.48 in 9.0 mi WNW 11.5 mph - N/A Snow Light Snow
6:58 PM 17.1 °F 5.0 °F 10.0 °F 74% 30.50 in 10.0 mi WNW 10.4 mph - N/A   Overcast
7:58 PM 16.0 °F 5.3 °F 8.1 °F 71% 30.51 in 10.0 mi West 8.1 mph - N/A   Overcast
8:58 PM 10.9 °F -1.8 °F 5.0 °F 77% 30.51 in 10.0 mi West 9.2 mph - N/A   Clear
9:58 PM 10.9 °F 0.2 °F 5.0 °F 77% 30.52 in 10.0 mi West 6.9 mph - N/A   Clear
10:58 PM 9.0 °F 2.4 °F 3.9 °F 80% 30.53 in 10.0 mi West 3.5 mph - N/A   Clear
11:58 PM 6.1 °F -2.8 °F 1.9 °F 83% 30.53 in 10.0 mi SW 4.6 mph - N/A   Clear